Location: Unspecified
(43.4680°N, 87.1740°E)
Time: 16:59:54
(UTC+00:00)

ISS - Visible Passes

Search period start: 26 September 2021 00:00
Search period end: 06 October 2021 00:00
Orbit: 417 x 423 km, 51.6° (Epoch: 26 September)

Date Brightness Start Highest point End Pass type
(mag) Time Alt. Az. Time Alt. Az. Time Alt. Az.
26 Sep -1.6 12:49:43 10° NW 12:52:19 20° N 12:54:56 10° NE visible
26 Sep -1.2 14:26:59 10° NW 14:28:26 19° NNW 14:28:26 19° NNW visible
27 Sep -2.0 13:39:44 10° NW 13:42:29 22° N 13:42:55 22° NNE visible
28 Sep -1.8 12:52:27 10° NW 12:55:05 20° N 12:57:28 11° NE visible
28 Sep -1.1 14:29:14 10° NW 14:30:27 20° NW 14:30:27 20° NW visible
29 Sep -2.6 13:42:09 10° NW 13:45:05 33° NNE 13:45:05 33° NNE visible
30 Sep -2.3 12:55:06 10° NW 12:58:02 26° NNE 12:59:49 17° ENE visible
30 Sep -0.9 14:31:46 10° WNW 14:32:48 18° WNW 14:32:48 18° WNW visible
01 Oct -3.3 13:44:44 10° NW 13:47:38 57° NNW 13:47:38 57° NNW visible
02 Oct -3.3 12:57:49 10° NW 13:01:06 46° NNE 13:02:34 27° E visible
02 Oct -0.6 14:34:54 10° WNW 14:35:34 14° W 14:35:34 14° W visible
03 Oct -2.7 13:47:46 10° WNW 13:50:39 42° WSW 13:50:39 42° WSW visible
04 Oct -3.6 13:00:50 10° WNW 13:04:12 72° SW 13:05:53 27° SE visible
05 Oct -3.7 12:14:01 10° NW 12:17:24 72° NNE 12:20:46 10° ESE visible
05 Oct -1.2 13:51:45 10° W 13:53:53 16° SW 13:54:19 16° SW visible
